Wetterdaten: Samstag, 02.11.2013
Datum Zeit Temperatur Luftfeuchte Luftdruck Regen Wind Richtung Richtung Taupunkt Windchill Windben
02.11.2013 00:00 6,7 C 90 % 1016,5 hPa 0,0 l/m 0,0 km/h (0 Bft) S-SO 157 5,2 C 7,0 C 0,0 km/h (0 Bft)
02.11.2013 00:05 6,8 C 90 % 1016,5 hPa 0,0 l/m 0,0 km/h (0 Bft) S-SO 157 5,3 C 7,0 C 0,0 km/h (0 Bft)
02.11.2013 00:10 6,8 C 90 % 1016,3 hPa 0,0 l/m 0,0 km/h (0 Bft) W-SW 247 5,3 C 7,0 C 0,0 km/h (0 Bft)
02.11.2013 00:15 6,9 C 90 % 1016,3 hPa 0,0 l/m 0,0 km/h (0 Bft) S-SO 157 5,4 C 7,2 C 0,0 km/h (0 Bft)
02.11.2013 00:20 6,9 C 90 % 1016,3 hPa 0,0 l/m 0,0 km/h (0 Bft) W-SW 247 5,4 C 7,2 C 0,0 km/h (0 Bft)
02.11.2013 00:25 6,8 C 90 % 1016,3 hPa 0,0 l/m 0,0 km/h (0 Bft) W-NW 292 5,3 C 7,2 C 0,0 km/h (0 Bft)
02.11.2013 00:30 6,6 C 90 % 1015,8 hPa 0,0 l/m 0,2 km/h (0 Bft) S 180 5,1 C 7,0 C 0,0 km/h (0 Bft)
02.11.2013 00:35 6,2 C 90 % 1015,8 hPa 0,0 l/m 0,2 km/h (0 Bft) W-SW 247 4,7 C 6,8 C 0,0 km/h (0 Bft)
02.11.2013 00:40 5,9 C 91 % 1015,8 hPa 0,0 l/m 0,0 km/h (0 Bft) S 180 4,5 C 6,3 C 0,0 km/h (0 Bft)
02.11.2013 00:45 5,9 C 91 % 1015,8 hPa 0,0 l/m 0,0 km/h (0 Bft) S 180 4,5 C 6,1 C 0,0 km/h (0 Bft)
02.11.2013 00:50 6,1 C 90 % 1015,6 hPa 0,0 l/m 0,3 km/h (0 Bft) N-NO 22 4,6 C 6,1 C 3,1 km/h (1 Bft)
02.11.2013 00:55 6,3 C 91 % 1015,6 hPa 0,0 l/m 0,8 km/h (0 Bft) NO 45 4,9 C 6,2 C 1,8 km/h (1 Bft)
02.11.2013 01:00 6,5 C 91 % 1015,6 hPa 0,0 l/m 1,3 km/h (1 Bft) S 180 5,1 C 6,3 C 3,7 km/h (1 Bft)
02.11.2013 01:05 6,3 C 90 % 1015,6 hPa 0,0 l/m 1,9 km/h (1 Bft) S-SO 157 4,8 C 6,4 C 4,0 km/h (1 Bft)
02.11.2013 01:10 6,0 C 90 % 1015,2 hPa 0,0 l/m 1,9 km/h (1 Bft) SO 135 4,5 C 6,4 C 4,5 km/h (1 Bft)
02.11.2013 01:15 5,9 C 92 % 1015,2 hPa 0,0 l/m 0,8 km/h (0 Bft) SO 135 4,7 C 6,3 C 0,0 km/h (0 Bft)
02.11.2013 01:20 5,7 C 91 % 1015,2 hPa 0,0 l/m 0,0 km/h (0 Bft) SO 135 4,3 C 6,1 C 0,0 km/h (0 Bft)
02.11.2013 01:25 5,6 C 91 % 1015,2 hPa 0,0 l/m 0,0 km/h (0 Bft) SW 225 4,2 C 6,0 C 0,0 km/h (0 Bft)
02.11.2013 01:30 5,9 C 92 % 1015,3 hPa 0,0 l/m 0,0 km/h (0 Bft) SO 135 4,7 C 6,0 C 0,0 km/h (0 Bft)
02.11.2013 01:35 6,1 C 90 % 1015,3 hPa 0,0 l/m 0,0 km/h (0 Bft) S-SW 202 4,6 C 6,0 C 0,0 km/h (0 Bft)
02.11.2013 01:40 5,9 C 92 % 1015,3 hPa 0,0 l/m 0,0 km/h (0 Bft) S-SO 157 4,7 C 6,1 C 0,0 km/h (0 Bft)
02.11.2013 01:45 6,1 C 91 % 1015,3 hPa 0,0 l/m 0,3 km/h (0 Bft) N-NO 22 4,7 C 6,1 C 0,0 km/h (0 Bft)
02.11.2013 01:50 6,2 C 91 % 1014,7 hPa 0,0 l/m 0,3 km/h (0 Bft) NO 45 4,8 C 6,3 C 0,0 km/h (0 Bft)
02.11.2013 01:55 6,2 C 91 % 1014,7 hPa 0,0 l/m 0,3 km/h (0 Bft) S 180 4,8 C 6,4 C 3,9 km/h (1 Bft)
02.11.2013 02:00 6,4 C 91 % 1014,7 hPa 0,0 l/m 2,1 km/h (1 Bft) NO 45 5,0 C 6,5 C 5,1 km/h (1 Bft)
02.11.2013 02:05 6,5 C 91 % 1014,7 hPa 0,0 l/m 2,3 km/h (1 Bft) NW 315 5,1 C 6,7 C 0,0 km/h (0 Bft)
02.11.2013 02:10 6,4 C 91 % 1014,5 hPa 0,0 l/m 0,8 km/h (0 Bft) O 90 5,0 C 6,6 C 2,7 km/h (1 Bft)
02.11.2013 02:15 6,6 C 91 % 1014,5 hPa 0,0 l/m 0,5 km/h (0 Bft) O 90 5,2 C 6,7 C 0,0 km/h (0 Bft)
02.11.2013 02:20 6,5 C 91 % 1014,5 hPa 0,0 l/m 0,8 km/h (0 Bft) S-SO 157 5,1 C 6,8 C 1,6 km/h (1 Bft)
02.11.2013 02:25 6,7 C 91 % 1014,5 hPa 0,0 l/m 1,3 km/h (1 Bft) O 90 5,3 C 6,8 C 2,4 km/h (1 Bft)
02.11.2013 02:30 6,8 C 91 % 1014,6 hPa 0,0 l/m 1,3 km/h (1 Bft) NW 315 5,4 C 6,9 C 0,0 km/h (0 Bft)
02.11.2013 02:35 6,6 C 91 % 1014,6 hPa 0,0 l/m 0,6 km/h (0 Bft) N-NW 337 5,2 C 6,8 C 0,0 km/h (0 Bft)
02.11.2013 02:38 6,8 C 91 % 1014,6 hPa 0,0 l/m 0,2 km/h (0 Bft) N 360 5,4 C 6,8 C 1,8 km/h (1 Bft)
02.11.2013 02:40 6,8 C 91 % 1014,6 hPa 0,0 l/m 0,2 km/h (0 Bft) N 360 5,4 C 6,8 C 1,8 km/h (1 Bft)
02.11.2013 02:45 6,7 C 91 % 1014,6 hPa 0,0 l/m 0,2 km/h (0 Bft) N 360 5,3 C 6,8 C 0,0 km/h (0 Bft)
02.11.2013 02:50 6,7 C 91 % 1014,3 hPa 0,0 l/m 0,2 km/h (0 Bft) N 360 5,3 C 6,8 C 0,0 km/h (0 Bft)
02.11.2013 02:55 6,7 C 91 % 1014,3 hPa 0,0 l/m 0,0 km/h (0 Bft) N 360 5,3 C 6,8 C 0,0 km/h (0 Bft)
02.11.2013 03:00 6,8 C 91 % 1014,3 hPa 0,0 l/m 0,0 km/h (0 Bft) S 180 5,4 C 7,0 C 0,0 km/h (0 Bft)
02.11.2013 03:05 6,6 C 90 % 1014,3 hPa 0,0 l/m 0,0 km/h (0 Bft) S 180 5,1 C 6,9 C 0,0 km/h (0 Bft)
02.11.2013 03:10 6,5 C 90 % 1013,8 hPa 0,0 l/m 0,0 km/h (0 Bft) S 180 5,0 C 6,9 C 0,0 km/h (0 Bft)
02.11.2013 03:15 6,5 C 90 % 1013,8 hPa 0,0 l/m 0,0 km/h (0 Bft) SW 225 5,0 C 6,8 C 0,0 km/h (0 Bft)
02.11.2013 03:20 6,7 C 90 % 1013,8 hPa 0,0 l/m 0,0 km/h (0 Bft) S-SO 157 5,2 C 6,8 C 0,0 km/h (0 Bft)
02.11.2013 03:25 6,6 C 90 % 1013,8 hPa 0,0 l/m 0,0 km/h (0 Bft) S-SO 157 5,1 C 6,7 C 0,0 km/h (0 Bft)
02.11.2013 03:30 6,5 C 90 % 1013,6 hPa 0,0 l/m 0,0 km/h (0 Bft) S-SO 157 5,0 C 6,8 C 0,0 km/h (0 Bft)
02.11.2013 03:35 6,4 C 90 % 1013,6 hPa 0,0 l/m 0,0 km/h (0 Bft) S 180 4,9 C 6,6 C 0,0 km/h (0 Bft)
02.11.2013 03:40 6,3 C 90 % 1013,6 hPa 0,0 l/m 0,0 km/h (0 Bft) S 180 4,8 C 6,5 C 0,0 km/h (0 Bft)
02.11.2013 03:45 6,3 C 90 % 1013,6 hPa 0,0 l/m 0,0 km/h (0 Bft) S 180 4,8 C 6,5 C 0,0 km/h (0 Bft)
02.11.2013 03:50 6,4 C 90 % 1013,4 hPa 0,0 l/m 0,0 km/h (0 Bft) S 180 4,9 C 6,5 C 0,0 km/h (0 Bft)
02.11.2013 03:55 6,4 C 90 % 1013,4 hPa 0,0 l/m 0,0 km/h (0 Bft) SO 135 4,9 C 6,5 C 0,0 km/h (0 Bft)
02.11.2013 04:00 6,3 C 90 % 1013,4 hPa 0,0 l/m 0,0 km/h (0 Bft) SO 135 4,8 C 6,4 C 0,0 km/h (0 Bft)
02.11.2013 04:05 6,4 C 90 % 1013,4 hPa 0,0 l/m 0,0 km/h (0 Bft) SO 135 4,9 C 6,5 C 0,0 km/h (0 Bft)
02.11.2013 04:10 6,6 C 91 % 1012,6 hPa 0,0 l/m 0,0 km/h (0 Bft) S-SO 157 5,2 C 6,7 C 0,0 km/h (0 Bft)
02.11.2013 04:15 6,7 C 91 % 1012,6 hPa 0,0 l/m 0,0 km/h (0 Bft) SO 135 5,3 C 6,8 C 0,0 km/h (0 Bft)
02.11.2013 04:20 6,5 C 91 % 1012,6 hPa 0,0 l/m 0,0 km/h (0 Bft) SO 135 5,1 C 6,7 C 0,0 km/h (0 Bft)
02.11.2013 04:25 6,6 C 91 % 1012,6 hPa 0,0 l/m 0,0 km/h (0 Bft) S-SO 157 5,2 C 6,7 C 0,0 km/h (0 Bft)
02.11.2013 04:30 6,6 C 91 % 1012,5 hPa 0,0 l/m 0,0 km/h (0 Bft) SO 135 5,2 C 6,7 C 0,0 km/h (0 Bft)
02.11.2013 04:35 6,6 C 91 % 1012,5 hPa 0,0 l/m 0,0 km/h (0 Bft) S 180 5,2 C 6,8 C 0,0 km/h (0 Bft)
02.11.2013 04:40 6,6 C 91 % 1012,5 hPa 0,0 l/m 0,2 km/h (0 Bft) O-NO 67 5,2 C 6,8 C 2,7 km/h (1 Bft)
02.11.2013 04:45 6,9 C 91 % 1012,5 hPa 0,0 l/m 0,5 km/h (0 Bft) NO 45 5,5 C 6,9 C 0,0 km/h (0 Bft)
02.11.2013 04:50 7,0 C 91 % 1012,1 hPa 0,0 l/m 1,1 km/h (1 Bft) N-NO 22 5,6 C 6,9 C 5,6 km/h (1 Bft)
02.11.2013 04:55 7,1 C 91 % 1012,1 hPa 0,0 l/m 1,3 km/h (1 Bft) S-SW 202 5,7 C 7,0 C 3,5 km/h (1 Bft)
02.11.2013 05:00 7,4 C 91 % 1012,1 hPa 0,0 l/m 2,9 km/h (1 Bft) O 90 6,0 C 7,3 C 7,4 km/h (2 Bft)
02.11.2013 05:05 7,7 C 90 % 1012,1 hPa 0,0 l/m 4,5 km/h (1 Bft) O 90 6,2 C 7,1 C 4,2 km/h (1 Bft)
02.11.2013 05:10 7,1 C 90 % 1012,2 hPa 0,0 l/m 3,9 km/h (1 Bft) SW 225 5,6 C 7,5 C 7,6 km/h (2 Bft)
02.11.2013 05:15 6,8 C 90 % 1012,2 hPa 0,0 l/m 1,6 km/h (1 Bft) NO 45 5,3 C 7,4 C 0,0 km/h (0 Bft)
02.11.2013 05:20 7,0 C 90 % 1012,2 hPa 0,0 l/m 1,0 km/h (0 Bft) NO 45 5,5 C 7,2 C 1,6 km/h (1 Bft)
02.11.2013 05:25 7,0 C 90 % 1012,2 hPa 0,0 l/m 2,4 km/h (1 Bft) S-SO 157 5,5 C 7,3 C 9,3 km/h (2 Bft)
02.11.2013 05:30 7,6 C 89 % 1012,3 hPa 0,0 l/m 4,5 km/h (1 Bft) N 360 5,9 C 7,2 C 7,4 km/h (2 Bft)
02.11.2013 05:35 7,8 C 89 % 1012,3 hPa 0,0 l/m 5,0 km/h (1 Bft) N-NO 22 6,1 C 7,3 C 0,0 km/h (0 Bft)
02.11.2013 05:40 8,3 C 88 % 1012,3 hPa 0,0 l/m 4,8 km/h (1 Bft) S 180 6,4 C 7,8 C 6,8 km/h (2 Bft)
02.11.2013 05:45 8,3 C 87 % 1012,3 hPa 0,0 l/m 3,1 km/h (1 Bft) S 180 6,3 C 8,6 C 4,8 km/h (1 Bft)
02.11.2013 05:50 8,3 C 86 % 1012,7 hPa 0,0 l/m 2,3 km/h (1 Bft) NO 45 6,1 C 8,8 C 2,1 km/h (1 Bft)
02.11.2013 05:55 8,4 C 86 % 1012,7 hPa 0,0 l/m 1,9 km/h (1 Bft) NO 45 6,2 C 8,8 C 0,0 km/h (0 Bft)
02.11.2013 06:00 8,4 C 86 % 1012,7 hPa 0,0 l/m 1,0 km/h (0 Bft) N-NO 22 6,2 C 8,8 C 0,0 km/h (0 Bft)
02.11.2013 06:05 8,3 C 86 % 1012,7 hPa 0,0 l/m 0,5 km/h (0 Bft) O 90 6,1 C 8,8 C 0,0 km/h (0 Bft)
02.11.2013 06:10 8,2 C 86 % 1012,6 hPa 0,0 l/m 0,2 km/h (0 Bft) O 90 6,0 C 8,8 C 0,0 km/h (0 Bft)
02.11.2013 06:15 8,4 C 85 % 1012,6 hPa 0,0 l/m 0,6 km/h (0 Bft) O 90 6,0 C 8,7 C 1,6 km/h (1 Bft)
02.11.2013 06:20 8,3 C 85 % 1012,6 hPa 0,0 l/m 0,6 km/h (0 Bft) N-NO 22 5,9 C 8,7 C 0,0 km/h (0 Bft)
02.11.2013 06:25 8,3 C 85 % 1012,6 hPa 0,0 l/m 0,5 km/h (0 Bft) O-NO 67 5,9 C 8,6 C 3,1 km/h (1 Bft)
02.11.2013 06:30 8,4 C 85 % 1012,4 hPa 0,0 l/m 0,8 km/h (0 Bft) O 90 6,0 C 8,7 C 0,0 km/h (0 Bft)
02.11.2013 06:35 8,3 C 85 % 1012,4 hPa 0,0 l/m 0,6 km/h (0 Bft) N 360 5,9 C 8,7 C 2,1 km/h (1 Bft)
02.11.2013 06:40 8,5 C 85 % 1012,4 hPa 0,0 l/m 1,3 km/h (1 Bft) N-NO 22 6,1 C 8,7 C 2,1 km/h (1 Bft)
02.11.2013 06:45 8,6 C 84 % 1012,4 hPa 0,0 l/m 2,1 km/h (1 Bft) N-NO 22 6,1 C 8,7 C 2,6 km/h (1 Bft)
02.11.2013 06:50 8,6 C 84 % 1012,5 hPa 0,0 l/m 1,6 km/h (1 Bft) NO 45 6,1 C 8,7 C 1,9 km/h (1 Bft)
02.11.2013 06:55 8,7 C 83 % 1012,5 hPa 0,0 l/m 1,4 km/h (1 Bft) NO 45 6,0 C 8,7 C 2,9 km/h (1 Bft)
02.11.2013 07:00 8,5 C 83 % 1012,5 hPa 0,0 l/m 1,6 km/h (1 Bft) O 90 5,8 C 8,6 C 0,0 km/h (0 Bft)
02.11.2013 07:05 8,6 C 84 % 1012,5 hPa 0,0 l/m 1,9 km/h (1 Bft) O-NO 67 6,1 C 8,6 C 4,3 km/h (1 Bft)
02.11.2013 07:10 8,8 C 83 % 1012,9 hPa 0,0 l/m 2,6 km/h (1 Bft) O 90 6,1 C 8,8 C 3,4 km/h (1 Bft)
02.11.2013 07:15 8,9 C 83 % 1012,9 hPa 0,0 l/m 3,1 km/h (1 Bft) O-SO 112 6,2 C 9,0 C 2,9 km/h (1 Bft)
02.11.2013 07:20 9,0 C 82 % 1012,9 hPa 0,0 l/m 3,1 km/h (1 Bft) N 360 6,1 C 9,3 C 5,1 km/h (1 Bft)
02.11.2013 07:25 9,0 C 81 % 1012,9 hPa 0,0 l/m 3,4 km/h (1 Bft) SO 135 5,9 C 9,4 C 7,4 km/h (2 Bft)
02.11.2013 07:30 9,1 C 81 % 1013,3 hPa 0,0 l/m 3,2 km/h (1 Bft) S 180 6,0 C 9,7 C 2,6 km/h (1 Bft)
02.11.2013 07:35 9,1 C 81 % 1013,3 hPa 0,0 l/m 2,9 km/h (1 Bft) S 180 6,0 C 9,7 C 4,7 km/h (1 Bft)
02.11.2013 07:40 9,3 C 81 % 1013,3 hPa 0,0 l/m 3,7 km/h (1 Bft) S 180 6,2 C 9,9 C 6,4 km/h (2 Bft)
02.11.2013 07:45 9,3 C 81 % 1013,3 hPa 0,0 l/m 4,7 km/h (1 Bft) S 180 6,2 C 9,8 C 4,7 km/h (1 Bft)
02.11.2013 07:50 9,3 C 81 % 1013,4 hPa 0,0 l/m 5,0 km/h (1 Bft) S-SO 157 6,2 C 9,7 C 6,1 km/h (2 Bft)
02.11.2013 07:55 9,4 C 81 % 1013,4 hPa 0,0 l/m 4,8 km/h (1 Bft) S-SO 157 6,3 C 9,8 C 8,0 km/h (2 Bft)
02.11.2013 08:00 9,4 C 81 % 1013,4 hPa 0,0 l/m 3,7 km/h (1 Bft) S-SO 157 6,3 C 10,0 C 4,7 km/h (1 Bft)
02.11.2013 08:05 9,5 C 82 % 1013,4 hPa 0,0 l/m 3,4 km/h (1 Bft) S 180 6,6 C 10,0 C 4,2 km/h (1 Bft)
02.11.2013 08:10 9,6 C 82 % 1013,2 hPa 0,0 l/m 3,4 km/h (1 Bft) S 180 6,7 C 10,1 C 3,1 km/h (1 Bft)
02.11.2013 08:15 9,5 C 82 % 1013,2 hPa 0,0 l/m 3,4 km/h (1 Bft) O-SO 112 6,6 C 10,1 C 5,5 km/h (1 Bft)
02.11.2013 08:20 9,5 C 82 % 1013,2 hPa 0,0 l/m 2,3 km/h (1 Bft) S 180 6,6 C 10,1 C 1,6 km/h (1 Bft)
02.11.2013 08:25 9,5 C 83 % 1013,2 hPa 0,0 l/m 1,4 km/h (1 Bft) S-SW 202 6,8 C 10,1 C 0,0 km/h (0 Bft)
02.11.2013 08:30 9,5 C 83 % 1013,2 hPa 0,0 l/m 0,6 km/h (0 Bft) O-SO 112 6,8 C 10,0 C 0,0 km/h (0 Bft)
02.11.2013 08:35 9,5 C 83 % 1013,2 hPa 0,0 l/m 0,0 km/h (0 Bft) O-SO 112 6,8 C 10,0 C 0,0 km/h (0 Bft)
02.11.2013 08:40 9,5 C 83 % 1013,2 hPa 0,0 l/m 0,0 km/h (0 Bft) O-SO 112 6,8 C 9,9 C 0,0 km/h (0 Bft)
02.11.2013 08:45 9,5 C 84 % 1013,2 hPa 0,0 l/m 0,0 km/h (0 Bft) O-SO 112 6,9 C 9,9 C 0,0 km/h (0 Bft)
02.11.2013 08:50 9,6 C 84 % 1013,2 hPa 0,0 l/m 0,6 km/h (0 Bft) S-SO 157 7,0 C 9,8 C 3,5 km/h (1 Bft)
02.11.2013 08:55 9,6 C 84 % 1013,2 hPa 0,0 l/m 0,8 km/h (0 Bft) SO 135 7,0 C 9,7 C 0,0 km/h (0 Bft)
02.11.2013 09:00 9,6 C 84 % 1013,2 hPa 0,0 l/m 0,5 km/h (0 Bft) O-SO 112 7,0 C 9,7 C 0,0 km/h (0 Bft)
02.11.2013 09:05 9,6 C 85 % 1013,2 hPa 0,0 l/m 0,2 km/h (0 Bft) O-SO 112 7,2 C 9,7 C 0,0 km/h (0 Bft)
02.11.2013 09:10 9,7 C 85 % 1013,2 hPa 0,0 l/m 1,1 km/h (1 Bft) S-SO 157 7,3 C 9,8 C 1,8 km/h (1 Bft)
02.11.2013 09:15 9,8 C 85 % 1013,2 hPa 0,0 l/m 2,1 km/h (1 Bft) N-NW 337 7,4 C 9,9 C 2,3 km/h (1 Bft)
02.11.2013 09:20 9,8 C 85 % 1013,2 hPa 0,0 l/m 1,8 km/h (1 Bft) O 90 7,4 C 10,0 C 3,7 km/h (1 Bft)
02.11.2013 09:25 9,8 C 86 % 1013,2 hPa 0,0 l/m 1,8 km/h (1 Bft) N 360 7,6 C 9,9 C 0,0 km/h (0 Bft)
02.11.2013 09:30 10,0 C 86 % 1013,1 hPa 0,0 l/m 1,4 km/h (1 Bft) S 180 7,8 C 10,0 C 1,8 km/h (1 Bft)
02.11.2013 09:35 10,1 C 86 % 1013,1 hPa 0,0 l/m 0,8 km/h (0 Bft) N-NO 22 7,9 C 10,0 C 2,7 km/h (1 Bft)
02.11.2013 09:40 10,2 C 86 % 1013,1 hPa 0,0 l/m 1,1 km/h (1 Bft) W-NW 292 8,0 C 10,2 C 0,0 km/h (0 Bft)
02.11.2013 09:45 10,4 C 86 % 1013,1 hPa 0,0 l/m 1,3 km/h (1 Bft) SW 225 8,2 C 10,4 C 2,6 km/h (1 Bft)
02.11.2013 09:50 10,6 C 86 % 1013,1 hPa 0,0 l/m 2,1 km/h (1 Bft) S 180 8,4 C 10,7 C 2,4 km/h (1 Bft)
02.11.2013 09:55 10,5 C 86 % 1013,1 hPa 0,0 l/m 1,6 km/h (1 Bft) S 180 8,3 C 10,9 C 0,0 km/h (0 Bft)
02.11.2013 10:00 10,4 C 85 % 1013,1 hPa 0,0 l/m 0,8 km/h (0 Bft) S-SO 157 8,0 C 10,8 C 2,4 km/h (1 Bft)
02.11.2013 10:05 10,4 C 85 % 1013,1 hPa 0,0 l/m 1,1 km/h (1 Bft) S-SO 157 8,0 C 10,8 C 2,9 km/h (1 Bft)
02.11.2013 10:10 10,4 C 85 % 1013,2 hPa 0,0 l/m 0,6 km/h (0 Bft) W-SW 247 8,0 C 10,8 C 0,0 km/h (0 Bft)
02.11.2013 10:15 10,4 C 85 % 1013,2 hPa 0,0 l/m 0,3 km/h (0 Bft) W-SW 247 8,0 C 10,8 C 0,0 km/h (0 Bft)
02.11.2013 10:20 10,4 C 84 % 1013,2 hPa 0,0 l/m 1,0 km/h (0 Bft) N-NO 22 7,8 C 10,9 C 2,9 km/h (1 Bft)
02.11.2013 10:25 10,4 C 84 % 1013,2 hPa 0,0 l/m 1,4 km/h (1 Bft) S 180 7,8 C 10,9 C 2,6 km/h (1 Bft)
02.11.2013 10:30 11,0 C 84 % 1012,9 hPa 0,0 l/m 1,3 km/h (1 Bft) S-SO 157 8,4 C 11,2 C 0,0 km/h (0 Bft)
02.11.2013 10:35 11,6 C 84 % 1012,9 hPa 0,0 l/m 1,0 km/h (0 Bft) S-SO 157 9,0 C 11,8 C 0,0 km/h (0 Bft)
02.11.2013 10:40 12,5 C 82 % 1012,9 hPa 0,0 l/m 0,3 km/h (0 Bft) S 180 9,5 C 13,1 C 3,5 km/h (1 Bft)
02.11.2013 10:45 12,7 C 81 % 1012,9 hPa 0,0 l/m 1,0 km/h (0 Bft) S-SW 202 9,5 C 14,0 C 0,0 km/h (0 Bft)
02.11.2013 10:50 12,9 C 81 % 1013,1 hPa 0,0 l/m 0,8 km/h (0 Bft) W-SW 247 9,7 C 14,4 C 1,6 km/h (1 Bft)
02.11.2013 10:55 12,8 C 79 % 1013,1 hPa 0,0 l/m 0,2 km/h (0 Bft) W-SW 247 9,2 C 14,6 C 0,0 km/h (0 Bft)
02.11.2013 11:00 12,9 C 79 % 1013,1 hPa 0,0 l/m 0,3 km/h (0 Bft) W-SW 247 9,3 C 14,7 C 2,7 km/h (1 Bft)
02.11.2013 11:05 13,0 C 78 % 1013,1 hPa 0,0 l/m 0,3 km/h (0 Bft) N-NW 337 9,3 C 14,9 C 0,0 km/h (0 Bft)
02.11.2013 11:10 13,1 C 76 % 1012,8 hPa 0,0 l/m 0,3 km/h (0 Bft) N-NW 337 9,0 C 15,2 C 2,3 km/h (1 Bft)
02.11.2013 11:15 13,3 C 76 % 1012,8 hPa 0,0 l/m 1,3 km/h (1 Bft) N-NO 22 9,2 C 15,3 C 1,8 km/h (1 Bft)
02.11.2013 11:20 13,6 C 75 % 1012,8 hPa 0,0 l/m 1,8 km/h (1 Bft) W-NW 292 9,3 C 15,5 C 2,6 km/h (1 Bft)
02.11.2013 11:25 13,6 C 75 % 1012,8 hPa 0,0 l/m 1,9 km/h (1 Bft) W-NW 292 9,3 C 15,3 C 5,3 km/h (1 Bft)
02.11.2013 11:30 13,4 C 74 % 1012,5 hPa 0,0 l/m 1,8 km/h (1 Bft) N 360 8,9 C 15,0 C 0,0 km/h (0 Bft)
02.11.2013 11:35 13,9 C 75 % 1012,5 hPa 0,0 l/m 1,3 km/h (1 Bft) N 360 9,5 C 15,0 C 0,0 km/h (0 Bft)
02.11.2013 11:40 13,8 C 73 % 1012,5 hPa 0,0 l/m 1,3 km/h (1 Bft) W-NW 292 9,0 C 15,2 C 4,0 km/h (1 Bft)
02.11.2013 11:45 13,6 C 74 % 1012,5 hPa 0,0 l/m 1,3 km/h (1 Bft) W-NW 292 9,1 C 15,1 C 0,0 km/h (0 Bft)
02.11.2013 11:50 13,4 C 75 % 1012,7 hPa 0,0 l/m 1,4 km/h (1 Bft) W-NW 292 9,1 C 14,7 C 0,0 km/h (0 Bft)
02.11.2013 11:55 12,9 C 76 % 1012,7 hPa 0,0 l/m 0,8 km/h (0 Bft) W 270 8,8 C 14,4 C 2,1 km/h (1 Bft)
02.11.2013 12:00 12,6 C 77 % 1012,7 hPa 0,0 l/m 1,1 km/h (1 Bft) S-SW 202 8,7 C 15,0 C 2,4 km/h (1 Bft)
02.11.2013 12:05 12,8 C 77 % 1012,7 hPa 0,0 l/m 1,1 km/h (1 Bft) S 180 8,9 C 15,7 C 0,0 km/h (0 Bft)
02.11.2013 12:10 13,1 C 77 % 1012,8 hPa 0,0 l/m 0,6 km/h (0 Bft) S 180 9,2 C 17,0 C 0,0 km/h (0 Bft)
02.11.2013 12:15 13,1 C 77 % 1012,8 hPa 0,0 l/m 0,6 km/h (0 Bft) S 180 9,2 C 17,0 C 0,0 km/h (0 Bft)
02.11.2013 12:20 12,8 C 77 % 1012,8 hPa 0,0 l/m 0,3 km/h (0 Bft) S 180 8,9 C 19,8 C 2,7 km/h (1 Bft)
02.11.2013 12:25 13,0 C 77 % 1012,8 hPa 0,0 l/m 1,0 km/h (0 Bft) S 180 9,1 C 20,4 C 2,1 km/h (1 Bft)
02.11.2013 12:30 13,3 C 75 % 1013,0 hPa 0,0 l/m 2,4 km/h (1 Bft) S 180 9,0 C 21,1 C 6,1 km/h (2 Bft)
02.11.2013 12:34 13,8 C 73 % 1013,0 hPa 0,0 l/m 4,0 km/h (1 Bft) SW 225 9,0 C 21,1 C 7,2 km/h (2 Bft)
02.11.2013 12:35 13,8 C 73 % 1013,0 hPa 0,0 l/m 4,0 km/h (1 Bft) SW 225 9,0 C 21,1 C 7,2 km/h (2 Bft)
02.11.2013 12:40 14,2 C 66 % 1013,0 hPa 0,0 l/m 7,7 km/h (2 Bft) W-SW 247 7,9 C 19,8 C 15,0 km/h (3 Bft)
02.11.2013 12:45 14,4 C 65 % 1013,0 hPa 0,0 l/m 9,0 km/h (2 Bft) S 180 7,9 C 18,8 C 6,9 km/h (2 Bft)
02.11.2013 12:50 14,7 C 66 % 1013,3 hPa 0,0 l/m 9,3 km/h (2 Bft) S 180 8,4 C 18,3 C 17,7 km/h (3 Bft)
02.11.2013 12:55 14,7 C 65 % 1013,3 hPa 0,0 l/m 10,1 km/h (2 Bft) S-SW 202 8,2 C 17,9 C 19,3 km/h (3 Bft)
02.11.2013 13:00 14,6 C 65 % 1013,3 hPa 0,0 l/m 10,5 km/h (2 Bft) S 180 8,1 C 17,5 C 8,2 km/h (2 Bft)
02.11.2013 13:05 14,6 C 65 % 1013,3 hPa 0,0 l/m 10,5 km/h (2 Bft) S 180 8,1 C 17,5 C 8,2 km/h (2 Bft)
02.11.2013 13:10 14,4 C 66 % 1013,6 hPa 0,0 l/m 10,5 km/h (2 Bft) S 180 8,1 C 17,5 C 8,2 km/h (2 Bft)
02.11.2013 13:15 14,4 C 67 % 1013,6 hPa 0,0 l/m 9,3 km/h (2 Bft) W-SW 247 8,4 C 17,2 C 10,3 km/h (2 Bft)
02.11.2013 13:20 14,5 C 64 % 1013,6 hPa 0,0 l/m 8,4 km/h (2 Bft) SW 225 7,8 C 16,9 C 9,8 km/h (2 Bft)
02.11.2013 13:25 14,4 C 63 % 1013,6 hPa 0,0 l/m 10,5 km/h (2 Bft) S-SW 202 7,4 C 14,9 C 20,6 km/h (4 Bft)
02.11.2013 13:30 14,6 C 62 % 1012,9 hPa 0,0 l/m 11,4 km/h (2 Bft) S-SW 202 7,4 C 13,5 C 15,3 km/h (3 Bft)
02.11.2013 13:35 14,6 C 62 % 1012,9 hPa 0,0 l/m 10,1 km/h (2 Bft) S 180 7,4 C 14,1 C 11,9 km/h (2 Bft)
02.11.2013 13:40 14,5 C 63 % 1012,9 hPa 0,0 l/m 9,8 km/h (2 Bft) S 180 7,5 C 14,1 C 12,2 km/h (2 Bft)
02.11.2013 13:45 14,5 C 62 % 1012,9 hPa 0,0 l/m 9,8 km/h (2 Bft) S 180 7,3 C 14,1 C 12,2 km/h (2 Bft)
02.11.2013 13:50 14,4 C 62 % 1012,8 hPa 0,0 l/m 9,8 km/h (2 Bft) S 180 7,2 C 14,1 C 12,2 km/h (2 Bft)
02.11.2013 13:55 14,4 C 62 % 1012,8 hPa 0,0 l/m 0,0 km/h (0 Bft) S 180 7,2 C 15,8 C 0,0 km/h (0 Bft)
02.11.2013 14:00 14,6 C 61 % 1012,8 hPa 0,0 l/m 0,0 km/h (0 Bft) S 180 7,2 C 15,8 C 0,0 km/h (0 Bft)
02.11.2013 14:05 14,6 C 61 % 1012,8 hPa 0,0 l/m 0,0 km/h (0 Bft) S 180 7,2 C 15,8 C 0,0 km/h (0 Bft)
02.11.2013 14:10 15,0 C 59 % 1012,6 hPa 0,0 l/m 0,0 km/h (0 Bft) S 180 7,1 C 15,8 C 0,0 km/h (0 Bft)
02.11.2013 14:15 15,2 C 59 % 1012,6 hPa 0,0 l/m 0,0 km/h (0 Bft) S 180 7,2 C 15,8 C 0,0 km/h (0 Bft)
02.11.2013 14:20 15,2 C 59 % 1012,6 hPa 0,0 l/m 0,0 km/h (0 Bft) S 180 7,2 C 15,8 C 0,0 km/h (0 Bft)
02.11.2013 14:25 15,2 C 58 % 1012,6 hPa 0,0 l/m 0,0 km/h (0 Bft) S 180 7,0 C 15,8 C 0,0 km/h (0 Bft)
02.11.2013 14:30 14,8 C 59 % 1012,8 hPa 0,0 l/m 0,0 km/h (0 Bft) S 180 6,9 C 15,8 C 0,0 km/h (0 Bft)
02.11.2013 14:35 15,0 C 58 % 1012,8 hPa 0,0 l/m 0,0 km/h (0 Bft) S 180 6,8 C 15,8 C 0,0 km/h (0 Bft)
02.11.2013 14:40 14,9 C 58 % 1012,8 hPa 0,0 l/m 0,0 km/h (0 Bft) S 180 6,7 C 15,8 C 0,0 km/h (0 Bft)
02.11.2013 14:45 14,8 C 59 % 1012,8 hPa 0,0 l/m 0,0 km/h (0 Bft) S 180 6,9 C 15,8 C 0,0 km/h (0 Bft)
02.11.2013 14:50 14,8 C 58 % 1012,5 hPa 0,0 l/m 0,0 km/h (0 Bft) S 180 6,6 C 15,8 C 0,0 km/h (0 Bft)
02.11.2013 14:55 14,7 C 59 % 1012,5 hPa 0,0 l/m 0,0 km/h (0 Bft) S 180 6,8 C 15,8 C 0,0 km/h (0 Bft)
02.11.2013 15:00 14,7 C 59 % 1012,5 hPa 0,0 l/m 0,0 km/h (0 Bft) S 180 6,8 C 15,8 C 0,0 km/h (0 Bft)
02.11.2013 15:05 14,7 C 59 % 1012,5 hPa 0,0 l/m 0,0 km/h (0 Bft) S 180 6,8 C 15,8 C 0,0 km/h (0 Bft)
02.11.2013 15:10 14,4 C 60 % 1013,0 hPa 0,0 l/m 0,0 km/h (0 Bft) S 180 6,7 C 15,8 C 0,0 km/h (0 Bft)
02.11.2013 15:15 14,3 C 61 % 1013,0 hPa 0,0 l/m 0,0 km/h (0 Bft) S 180 6,9 C 15,8 C 0,0 km/h (0 Bft)
02.11.2013 15:20 14,0 C 62 % 1013,0 hPa 0,0 l/m 0,0 km/h (0 Bft) S 180 6,8 C 15,8 C 0,0 km/h (0 Bft)
02.11.2013 15:25 14,2 C 62 % 1013,0 hPa 0,0 l/m 0,0 km/h (0 Bft) S 180 7,0 C 15,8 C 0,0 km/h (0 Bft)
02.11.2013 15:30 13,9 C 63 % 1012,9 hPa 0,0 l/m 0,0 km/h (0 Bft) S 180 7,0 C 15,8 C 0,0 km/h (0 Bft)
02.11.2013 15:35 13,4 C 64 % 1012,9 hPa 0,0 l/m 0,0 km/h (0 Bft) S 180 6,7 C 15,8 C 0,0 km/h (0 Bft)
02.11.2013 15:40 13,3 C 66 % 1012,9 hPa 0,0 l/m 0,0 km/h (0 Bft) S 180 7,1 C 15,8 C 0,0 km/h (0 Bft)
02.11.2013 15:45 13,3 C 66 % 1012,9 hPa 0,0 l/m 0,0 km/h (0 Bft) S 180 7,1 C 15,8 C 0,0 km/h (0 Bft)
02.11.2013 15:50 12,9 C 68 % 1012,9 hPa 0,0 l/m 0,0 km/h (0 Bft) S 180 7,1 C 15,8 C 0,0 km/h (0 Bft)
02.11.2013 15:55 13,2 C 67 % 1012,9 hPa 0,0 l/m 0,0 km/h (0 Bft) S 180 7,2 C 15,8 C 0,0 km/h (0 Bft)
02.11.2013 16:00 12,9 C 68 % 1012,9 hPa 0,0 l/m 0,0 km/h (0 Bft) S 180 7,1 C 15,8 C 0,0 km/h (0 Bft)
02.11.2013 16:05 12,6 C 68 % 1012,9 hPa 0,0 l/m 0,0 km/h (0 Bft) S 180 6,9 C 15,8 C 0,0 km/h (0 Bft)
02.11.2013 16:10 12,5 C 69 % 1012,8 hPa 0,0 l/m 0,0 km/h (0 Bft) S 180 7,0 C 15,8 C 0,0 km/h (0 Bft)
02.11.2013 16:15 12,4 C 69 % 1012,8 hPa 0,0 l/m 0,0 km/h (0 Bft) S 180 6,9 C 15,8 C 0,0 km/h (0 Bft)
02.11.2013 16:20 12,6 C 69 % 1012,8 hPa 0,0 l/m 0,0 km/h (0 Bft) S 180 7,1 C 15,8 C 0,0 km/h (0 Bft)
02.11.2013 16:25 12,5 C 69 % 1012,8 hPa 0,0 l/m 0,0 km/h (0 Bft) S 180 7,0 C 15,8 C 0,0 km/h (0 Bft)
02.11.2013 16:30 12,6 C 69 % 1012,9 hPa 0,0 l/m 0,0 km/h (0 Bft) S 180 7,1 C 15,8 C 0,0 km/h (0 Bft)
02.11.2013 16:35 12,4 C 69 % 1012,9 hPa 0,0 l/m 0,0 km/h (0 Bft) S 180 6,9 C 15,8 C 0,0 km/h (0 Bft)
02.11.2013 16:40 12,3 C 69 % 1012,9 hPa 0,0 l/m 0,0 km/h (0 Bft) S 180 6,8 C 15,8 C 0,0 km/h (0 Bft)
02.11.2013 16:45 12,2 C 70 % 1012,9 hPa 0,0 l/m 0,0 km/h (0 Bft) S 180 6,9 C 15,8 C 0,0 km/h (0 Bft)
02.11.2013 16:50 12,1 C 70 % 1012,9 hPa 0,0 l/m 0,0 km/h (0 Bft) S 180 6,8 C 15,8 C 0,0 km/h (0 Bft)
02.11.2013 16:55 12,0 C 70 % 1012,9 hPa 0,0 l/m 0,0 km/h (0 Bft) S 180 6,7 C 15,8 C 0,0 km/h (0 Bft)
02.11.2013 17:00 11,5 C 71 % 1012,9 hPa 0,0 l/m 0,0 km/h (0 Bft) S 180 6,4 C 15,8 C 0,0 km/h (0 Bft)
02.11.2013 17:05 11,4 C 72 % 1012,9 hPa 0,0 l/m 0,0 km/h (0 Bft) S 180 6,5 C 15,8 C 0,0 km/h (0 Bft)
02.11.2013 17:10 11,4 C 72 % 1013,0 hPa 0,0 l/m 0,0 km/h (0 Bft) S 180 6,5 C 15,8 C 0,0 km/h (0 Bft)
02.11.2013 17:15 11,3 C 72 % 1013,0 hPa 0,0 l/m 0,0 km/h (0 Bft) S 180 6,4 C 15,8 C 0,0 km/h (0 Bft)
02.11.2013 17:20 11,0 C 72 % 1013,0 hPa 0,0 l/m 0,0 km/h (0 Bft) S 180 6,2 C 15,8 C 0,0 km/h (0 Bft)
02.11.2013 17:25 11,1 C 73 % 1013,0 hPa 0,0 l/m 0,0 km/h (0 Bft) S 180 6,4 C 15,8 C 0,0 km/h (0 Bft)
02.11.2013 17:30 11,1 C 73 % 1013,1 hPa 0,0 l/m 0,0 km/h (0 Bft) S 180 6,4 C 15,8 C 0,0 km/h (0 Bft)
02.11.2013 17:34 11,2 C 73 % 1013,1 hPa 0,0 l/m 0,0 km/h (0 Bft) S 180 6,5 C 15,8 C 0,0 km/h (0 Bft)
02.11.2013 17:35 11,2 C 73 % 1013,1 hPa 0,0 l/m 0,0 km/h (0 Bft) S 180 6,5 C 15,8 C 0,0 km/h (0 Bft)
02.11.2013 17:40 11,1 C 73 % 1013,1 hPa 0,0 l/m 0,0 km/h (0 Bft) S 180 6,4 C 15,8 C 0,0 km/h (0 Bft)
02.11.2013 17:45 11,3 C 73 % 1013,1 hPa 0,0 l/m 0,0 km/h (0 Bft) S 180 6,6 C 15,8 C 0,0 km/h (0 Bft)
02.11.2013 17:50 10,8 C 73 % 1013,0 hPa 0,0 l/m 0,0 km/h (0 Bft) S 180 6,2 C 15,8 C 0,0 km/h (0 Bft)
02.11.2013 17:55 10,7 C 73 % 1013,0 hPa 0,0 l/m 0,0 km/h (0 Bft) S 180 6,1 C 15,8 C 0,0 km/h (0 Bft)
02.11.2013 18:00 10,7 C 74 % 1013,0 hPa 0,0 l/m 0,0 km/h (0 Bft) S 180 6,3 C 15,8 C 0,0 km/h (0 Bft)
02.11.2013 18:05 10,6 C 74 % 1013,0 hPa 0,0 l/m 0,0 km/h (0 Bft) S 180 6,2 C 15,8 C 0,0 km/h (0 Bft)
02.11.2013 18:10 10,4 C 75 % 1013,1 hPa 0,0 l/m 0,0 km/h (0 Bft) S 180 6,2 C 15,8 C 0,0 km/h (0 Bft)
02.11.2013 18:15 10,1 C 75 % 1013,1 hPa 0,0 l/m 0,0 km/h (0 Bft) S 180 5,9 C 15,8 C 0,0 km/h (0 Bft)
02.11.2013 18:20 9,9 C 76 % 1013,1 hPa 0,0 l/m 0,0 km/h (0 Bft) S 180 5,9 C 15,8 C 0,0 km/h (0 Bft)
02.11.2013 18:25 10,0 C 76 % 1013,1 hPa 0,0 l/m 0,0 km/h (0 Bft) S 180 6,0 C 15,8 C 0,0 km/h (0 Bft)
02.11.2013 18:30 9,9 C 77 % 1013,3 hPa 0,0 l/m 0,0 km/h (0 Bft) S 180 6,1 C 15,8 C 0,0 km/h (0 Bft)
02.11.2013 18:35 10,0 C 77 % 1013,3 hPa 0,0 l/m 0,0 km/h (0 Bft) S 180 6,2 C 15,8 C 0,0 km/h (0 Bft)
02.11.2013 18:40 10,1 C 77 % 1013,3 hPa 0,0 l/m 0,0 km/h (0 Bft) S 180 6,3 C 15,8 C 0,0 km/h (0 Bft)
02.11.2013 18:45 10,1 C 77 % 1013,3 hPa 0,0 l/m 0,0 km/h (0 Bft) S 180 6,3 C 15,8 C 0,0 km/h (0 Bft)
02.11.2013 18:50 10,1 C 76 % 1013,4 hPa 0,0 l/m 0,0 km/h (0 Bft) S 180 6,1 C 15,8 C 0,0 km/h (0 Bft)
02.11.2013 18:55 10,3 C 76 % 1013,4 hPa 0,0 l/m 0,0 km/h (0 Bft) S 180 6,3 C 15,8 C 0,0 km/h (0 Bft)
02.11.2013 19:00 10,0 C 76 % 1013,4 hPa 0,0 l/m 0,0 km/h (0 Bft) S 180 6,0 C 15,8 C 0,0 km/h (0 Bft)
02.11.2013 19:05 10,1 C 76 % 1013,4 hPa 0,0 l/m 0,0 km/h (0 Bft) S 180 6,1 C 15,8 C 0,0 km/h (0 Bft)
02.11.2013 19:10 10,1 C 76 % 1013,5 hPa 0,0 l/m 0,0 km/h (0 Bft) S 180 6,1 C 15,8 C 0,0 km/h (0 Bft)
02.11.2013 19:15 10,4 C 77 % 1013,5 hPa 0,0 l/m 0,0 km/h (0 Bft) S 180 6,5 C 15,8 C 0,0 km/h (0 Bft)
02.11.2013 19:20 10,3 C 76 % 1013,5 hPa 0,0 l/m 0,0 km/h (0 Bft) S 180 6,3 C 15,8 C 0,0 km/h (0 Bft)
02.11.2013 19:25 10,4 C 76 % 1013,5 hPa 0,0 l/m 0,0 km/h (0 Bft) S 180 6,4 C 15,8 C 0,0 km/h (0 Bft)
02.11.2013 19:30 10,3 C 76 % 1013,4 hPa 0,0 l/m 0,0 km/h (0 Bft) S 180 6,3 C 15,8 C 0,0 km/h (0 Bft)
02.11.2013 19:35 10,2 C 77 % 1013,4 hPa 0,0 l/m 0,0 km/h (0 Bft) S 180 6,4 C 15,8 C 0,0 km/h (0 Bft)
02.11.2013 19:40 10,1 C 77 % 1013,4 hPa 0,0 l/m 0,0 km/h (0 Bft) S 180 6,3 C 15,8 C 0,0 km/h (0 Bft)
02.11.2013 19:45 10,1 C 77 % 1013,4 hPa 0,0 l/m 0,0 km/h (0 Bft) S 180 6,3 C 15,8 C 0,0 km/h (0 Bft)
02.11.2013 19:50 10,1 C 78 % 1013,6 hPa 0,0 l/m 0,0 km/h (0 Bft) S 180 6,4 C 15,8 C 0,0 km/h (0 Bft)
02.11.2013 19:55 10,0 C 78 % 1013,6 hPa 0,0 l/m 0,0 km/h (0 Bft) S 180 6,3 C 15,8 C 0,0 km/h (0 Bft)
02.11.2013 20:00 9,9 C 78 % 1013,6 hPa 0,0 l/m 0,0 km/h (0 Bft) S 180 6,2 C 15,8 C 0,0 km/h (0 Bft)
02.11.2013 20:05 9,7 C 78 % 1013,6 hPa 0,0 l/m 0,0 km/h (0 Bft) S 180 6,1 C 15,8 C 0,0 km/h (0 Bft)
02.11.2013 20:10 9,4 C 78 % 1013,6 hPa 0,0 l/m 0,0 km/h (0 Bft) S 180 5,8 C 15,8 C 0,0 km/h (0 Bft)
02.11.2013 20:15 9,1 C 78 % 1013,6 hPa 0,0 l/m 0,0 km/h (0 Bft) S 180 5,5 C 15,8 C 0,0 km/h (0 Bft)
02.11.2013 20:20 8,9 C 79 % 1013,6 hPa 0,0 l/m 0,0 km/h (0 Bft) S 180 5,5 C 15,8 C 0,0 km/h (0 Bft)
02.11.2013 20:25 8,6 C 79 % 1013,6 hPa 0,0 l/m 0,0 km/h (0 Bft) S 180 5,2 C 15,8 C 0,0 km/h (0 Bft)
02.11.2013 20:30 8,0 C 80 % 1013,6 hPa 0,0 l/m 0,0 km/h (0 Bft) S 180 4,8 C 15,8 C 0,0 km/h (0 Bft)
02.11.2013 20:35 7,6 C 80 % 1013,6 hPa 0,0 l/m 0,0 km/h (0 Bft) S 180 4,4 C 15,8 C 0,0 km/h (0 Bft)
02.11.2013 20:40 7,5 C 81 % 1013,6 hPa 0,0 l/m 0,0 km/h (0 Bft) S 180 4,5 C 15,8 C 0,0 km/h (0 Bft)
02.11.2013 20:45 7,3 C 81 % 1013,6 hPa 0,0 l/m 0,0 km/h (0 Bft) S 180 4,3 C 15,8 C 0,0 km/h (0 Bft)
02.11.2013 20:50 7,1 C 82 % 1013,6 hPa 0,0 l/m 0,0 km/h (0 Bft) S 180 4,2 C 15,8 C 0,0 km/h (0 Bft)
02.11.2013 20:55 6,8 C 83 % 1013,6 hPa 0,0 l/m 0,0 km/h (0 Bft) S 180 4,1 C 15,8 C 0,0 km/h (0 Bft)
02.11.2013 21:00 6,7 C 83 % 1013,6 hPa 0,0 l/m 0,0 km/h (0 Bft) S 180 4,0 C 15,8 C 0,0 km/h (0 Bft)
02.11.2013 21:05 6,9 C 84 % 1013,6 hPa 0,0 l/m 0,0 km/h (0 Bft) S 180 4,4 C 15,8 C 0,0 km/h (0 Bft)
02.11.2013 21:10 7,1 C 85 % 1013,7 hPa 0,0 l/m 0,0 km/h (0 Bft) S 180 4,8 C 15,8 C 0,0 km/h (0 Bft)
02.11.2013 21:15 6,6 C 85 % 1013,7 hPa 0,0 l/m 0,0 km/h (0 Bft) S 180 4,3 C 15,8 C 0,0 km/h (0 Bft)
02.11.2013 21:20 6,3 C 85 % 1013,7 hPa 0,0 l/m 0,0 km/h (0 Bft) S 180 4,0 C 15,8 C 0,0 km/h (0 Bft)
02.11.2013 21:25 6,2 C 85 % 1013,7 hPa 0,0 l/m 0,0 km/h (0 Bft) S 180 3,9 C 15,8 C 0,0 km/h (0 Bft)
02.11.2013 21:30 7,2 C 87 % 1013,5 hPa 0,0 l/m 0,0 km/h (0 Bft) S 180 5,2 C 15,8 C 0,0 km/h (0 Bft)
02.11.2013 21:35 7,4 C 87 % 1013,5 hPa 0,0 l/m 0,0 km/h (0 Bft) S 180 5,4 C 15,8 C 0,0 km/h (0 Bft)
02.11.2013 21:40 7,2 C 87 % 1013,5 hPa 0,0 l/m 0,0 km/h (0 Bft) S 180 5,2 C 15,8 C 0,0 km/h (0 Bft)
02.11.2013 21:45 6,8 C 87 % 1013,5 hPa 0,0 l/m 0,0 km/h (0 Bft) S 180 4,8 C 15,8 C 0,0 km/h (0 Bft)
02.11.2013 21:50 6,6 C 87 % 1013,2 hPa 0,0 l/m 0,0 km/h (0 Bft) S 180 4,6 C 15,8 C 0,0 km/h (0 Bft)
02.11.2013 21:55 6,8 C 88 % 1013,2 hPa 0,0 l/m 0,0 km/h (0 Bft) S 180 5,0 C 15,8 C 0,0 km/h (0 Bft)
02.11.2013 22:00 6,8 C 88 % 1013,2 hPa 0,0 l/m 0,0 km/h (0 Bft) S 180 5,0 C 15,8 C 0,0 km/h (0 Bft)
02.11.2013 22:05 6,8 C 88 % 1013,2 hPa 0,0 l/m 0,0 km/h (0 Bft) S 180 5,0 C 15,8 C 0,0 km/h (0 Bft)
02.11.2013 22:10 6,9 C 89 % 1013,3 hPa 0,0 l/m 0,0 km/h (0 Bft) S 180 5,2 C 15,8 C 0,0 km/h (0 Bft)
02.11.2013 22:15 6,9 C 89 % 1013,3 hPa 0,0 l/m 0,0 km/h (0 Bft) S 180 5,2 C 15,8 C 0,0 km/h (0 Bft)
02.11.2013 22:20 6,8 C 88 % 1013,3 hPa 0,0 l/m 0,0 km/h (0 Bft) S 180 5,0 C 15,8 C 0,0 km/h (0 Bft)
02.11.2013 22:25 6,7 C 89 % 1013,3 hPa 0,0 l/m 0,5 km/h (0 Bft) N-NO 22 5,0 C 7,1 C 2,3 km/h (1 Bft)
02.11.2013 22:30 6,7 C 89 % 1013,1 hPa 0,0 l/m 0,2 km/h (0 Bft) W-SW 247 5,0 C 6,8 C 0,0 km/h (0 Bft)
02.11.2013 22:34 6,2 C 89 % 1013,1 hPa 0,0 l/m 0,2 km/h (0 Bft) SW 225 4,5 C 6,7 C 0,0 km/h (0 Bft)
02.11.2013 22:35 6,2 C 89 % 1013,1 hPa 0,0 l/m 0,2 km/h (0 Bft) SW 225 4,5 C 6,7 C 0,0 km/h (0 Bft)
02.11.2013 22:40 6,0 C 88 % 1013,1 hPa 0,0 l/m 0,0 km/h (0 Bft) W-SW 247 4,2 C 6,2 C 0,0 km/h (0 Bft)
02.11.2013 22:45 5,8 C 89 % 1013,1 hPa 0,0 l/m 0,0 km/h (0 Bft) W 270 4,1 C 6,1 C 0,0 km/h (0 Bft)
02.11.2013 22:50 5,6 C 89 % 1013,0 hPa 0,0 l/m 0,0 km/h (0 Bft) W 270 3,9 C 5,8 C 0,0 km/h (0 Bft)
02.11.2013 22:55 5,4 C 89 % 1013,0 hPa 0,0 l/m 0,0 km/h (0 Bft) W-NW 292 3,7 C 5,6 C 0,0 km/h (0 Bft)
02.11.2013 23:00 5,3 C 89 % 1013,0 hPa 0,0 l/m 0,0 km/h (0 Bft) W-NW 292 3,6 C 5,5 C 0,0 km/h (0 Bft)
02.11.2013 23:05 5,3 C 89 % 1013,0 hPa 0,0 l/m 0,0 km/h (0 Bft) W-NW 292 3,6 C 5,5 C 0,0 km/h (0 Bft)
02.11.2013 23:10 5,3 C 89 % 1012,8 hPa 0,0 l/m 0,0 km/h (0 Bft) W-NW 292 3,6 C 5,3 C 0,0 km/h (0 Bft)
02.11.2013 23:15 5,1 C 89 % 1012,8 hPa 0,0 l/m 0,0 km/h (0 Bft) W-NW 292 3,4 C 5,3 C 0,0 km/h (0 Bft)
02.11.2013 23:20 5,3 C 89 % 1012,8 hPa 0,0 l/m 0,0 km/h (0 Bft) W-NW 292 3,6 C 5,3 C 0,0 km/h (0 Bft)
02.11.2013 23:25 5,2 C 90 % 1012,8 hPa 0,0 l/m 0,0 km/h (0 Bft) N-NW 337 3,7 C 5,5 C 0,0 km/h (0 Bft)
02.11.2013 23:30 5,0 C 90 % 1012,5 hPa 0,0 l/m 0,0 km/h (0 Bft) N-NW 337 3,5 C 5,6 C 0,0 km/h (0 Bft)
02.11.2013 23:35 5,0 C 90 % 1012,5 hPa 0,0 l/m 0,0 km/h (0 Bft) N-NW 337 3,5 C 5,6 C 0,0 km/h (0 Bft)
02.11.2013 23:40 5,3 C 90 % 1012,5 hPa 0,0 l/m 0,0 km/h (0 Bft) N-NW 337 3,8 C 5,6 C 0,0 km/h (0 Bft)
02.11.2013 23:45 5,2 C 90 % 1012,5 hPa 0,0 l/m 0,0 km/h (0 Bft) N-NW 337 3,7 C 5,5 C 0,0 km/h (0 Bft)
02.11.2013 23:50 5,3 C 91 % 1012,2 hPa 0,0 l/m 0,0 km/h (0 Bft) N 360 4,0 C 5,6 C 0,0 km/h (0 Bft)
02.11.2013 23:55 5,5 C 91 % 1012,2 hPa 0,0 l/m 0,0 km/h (0 Bft) NW 315 4,2 C 5,6 C 0,0 km/h (0 Bft)
_ Min-Zeit 23:35 14:50 05:05 - 23:55 - - 23:15 23:20 23:55
Minimum _ 5,0 C 58 % 1012,1 hPa - 0,0 km/h (0 Bft) - - 3,4 C 5,3 C 0,0 km/h (0 Bft)
_ Max-Zeit 14:25 01:40 00:05 23:55 13:30 - - 10:50 12:35 13:25
Maximum _ 15,2 C 92 % 1016,5 hPa 0,0 l/m 11,4 km/h
S-SW (2 Bft)
- - 9,7 C 21,1 C 20,6 km/h
S-SW (4 Bft)
Durchschnitt _ 9,5 C 81 % 1013,3 hPa #0,0 l/m 1,1 km/h (1 Bft) S - 6,2 C 11,8 C 1,6 km/h (1 Bft)